Weather in Utrecht

Netherlands     52°05′46″N   5°06′42″E
temp.,
°C
wind,
m/s
gust,
m/s
humid.,
%
clouds,
%
prec.,
mm/h
press.,
hPa
HPBL,
m
26 june, sun
sun2623:00+16se2398100 6.7 1012105
02:00+15sw3798100 6.9 1012310
05:00+14sw3898100 0.0 1013332
08:00+15sw379097 0.0 1014369
11:00+18sw3468100 0.0 1015914
14:00+21ssw4554100 0.0 10161636
17:00+22s3552100 0.0 10151625
20:00+19se1167100 0.0 101415
27 june, mon
mon2723:00+17wnw2373100 0.1 101578
02:00+15ne2594100 0.6 1016132
05:00+14e1196100 0.1 101536
08:00+16sw1292100 0.1 1015107
11:00+19wsw2370100 0.0 1016485
14:00+21sw3354100 0.1 10161235
17:00+14wnw4894100 1.4 1018350
20:00+17sw25702 1.4 1019722
28 june, tue
tue2823:00+13sw34840 0.0 102076
02:00+12ssw38840 0.0 1020179
05:00+10ssw36880 0.0 1021119
08:00+14ssw46810 0.0 1022256
11:00+18ssw45595 0.0 10211074
14:00+21sw454714 0.0 10201610
17:00+22s23462 0.0 10191720
20:00+21ene2259100 0.0 101876
29 june, wed
wed2923:00+17e366545 0.0 101882
02:00+16e3862100 0.0 1017189
05:00+14ese2570100 0.0 1016109
08:00+17se24735 0.0 1015165
11:00+23s23560 0.0 1014665
14:00+26s34433 0.0 10131845
17:00+27ssw153899 0.0 10112074
20:00+23se1157100 0.0 101018
30 june, thu
thu3023:00+18w237495 0.0 101066
02:00+15nnw368053 0.0 1011160
05:00+14nw1190100 0.0 101114
08:00+17wsw238182 0.0 1012260
11:00+19wsw5768100 0.1 10131157
14:00+15ssw2495100 2.1 1014362
17:00+15ssw3590100 0.3 1014522
20:00+16ssw2483100 0.6 1015261